Location: Goldmont Forest
(38.0233°N, 120.2524°W)
Time: 23:20:48
(UTC+00:00)

Meteor 1-16 Rocket - Pass Details

Date: 05 August 2024
Orbit: 789 x 906 km, 81.2° (Epoch: 08 September)

Event Time Altitude Azimuth Distance (km) Brightness Sun altitude
Rises 12:18:21 0° 185° (S) 3,507 7.1 -9.6°
Reaches altitude 10° 12:20:49 10° 184° (S) 2,562 6.4 -9.2°
Maximum altitude 12:26:41 83° 97° (E) 895 4.4 -8.2°
Drops below altitude 10° 12:32:25 10° 11° (N) 2,513 7.3 -7.2°
Sets 12:34:49 0° 10° (N) 3,436 8.0 -6.8°
